[[{"header":{"parameterUnit":"m.s-1","parameterCategory":2,"la1":30.2991,"la2":30.254,"lo1":-89.0895,"lo2":-89.0444,"dy":0.0017,"dx":0.0017,"nx":28,"ny":28,"refTime":"2024-04-18T21:00:00:Z","depth":"0","parameterNumber":2,"parameterNumberName":"U-component_of_CURRENTS"},"data":[0,0,0,0,0,0,0,0,0,0,0,0,0,0,0,0,0,0,0,0,0,0,0,0,0,0,0,0,0,0,0,0,0,0,0,0,0,0,0,0,0,0,0,0,0,0,0,0,0,0,0,0,0,0,0,0,0,0,0.2257,0.2258,0,0.2292,0.2292,0.2292,0.23,0.23,0.23,0.23,0.2325,0.2326,0.2327,0,0,0,0,0,0,0,0,0,0,0,0,0,0.2185,0.2186,0.2257,0.2258,0.2258,0.2292,0.2292,0.2292,0.23,0.23,0.23,0.23,0.2325,0.2326,0.2327,0,0,0,0,0,0,0,0,0,0,0,0,0,0.2215,0.2186,0.2257,0.2268,0.2269,0.2292,0.2292,0.2292,0.23,0.23,0.23,0.23,0.2325,0.2326,0.2327,0.2335,0,0,0.233,0.2331,0,0,0,0,0,0,0,0,0.2214,0.2218,0.2265,0.2267,0.2269,0.2293,0.2276,0.2307,0.23,0.2286,0.23,0.23,0.2315,0.2317,0.2321,0.2337,0.2338,0.233,0.2331,0.2331,0.2332,0,0,0,0,0,0,0,0.2212,0.2216,0.2269,0.2266,0.2268,0.2266,0.2271,0.2282,0.2299,0.2288,0.2289,0.2296,0.2315,0.232,0.2322,0.2338,0.233,0.2331,0.2332,0.2332,0.2387,0.2388,0,0,0,0,0,0,0.2212,0.2215,0.2268,0.227,0.2243,0.2268,0.2273,0.2284,0.2299,0.2302,0.2296,0.2296,0.2318,0.232,0.2323,0.2355,0.2331,0.2332,0.2333,0.2387,0.2388,0.2388,0,0,0,0,0,0,0.2211,0.2217,0.2266,0.2244,0.2251,0.227,0.2282,0.2285,0.2291,0.2306,0.2308,0.23,0.2318,0.2321,0.2339,0.2355,0.2333,0.2334,0.2386,0.2387,0.2388,0.2407,0,0,0,0,0,0,0.2209,0.2216,0.2224,0.2245,0.2252,0.2284,0.2282,0.2285,0.2296,0.2297,0.231,0.2312,0.2318,0.2337,0.234,0.2356,0.2335,0.2385,0.2386,0.2388,0.2405,0.2408,0.2411,0,0,0,0,0,0.2206,0.2219,0.2224,0.223,0.2262,0.2284,0.2288,0.2299,0.2296,0.2303,0.2313,0.2312,0.2349,0.2339,0.2342,0.2359,0.2384,0.2386,0.2387,0.2404,0.2408,0.2411,0,0,0,0,0,0,0.2194,0.2222,0.2227,0.2249,0.2267,0.2287,0.2295,0.23,0.2312,0.2313,0.232,0.2324,0.235,0.235,0.2338,0.238,0.2367,0.237,0.2378,0.2382,0.2385,0.2394,0.2336,0,0,0,0,0,0.2194,0.2211,0.2235,0.2252,0.2261,0.2276,0.2286,0.2295,0.231,0.2315,0.2323,0.2337,0.2359,0.2366,0.2384,0.2401,0.2426,0.2415,0.2418,0.242,0.243,0.2479,0.2488,0.2394,0.2394,0.2394,0,0,0.2197,0.2213,0.2224,0.2251,0.2263,0.2283,0.2281,0.23,0.2318,0.2316,0.2337,0.2349,0.2368,0.2394,0.2405,0.2394,0.2462,0.2422,0.2424,0.2433,0.2482,0.2491,0.25,0.2396,0.2395,0.2395,0,0,0.2211,0.2221,0.2241,0.2254,0.2277,0.2288,0.2294,0.2313,0.2324,0.2345,0.2356,0.2379,0.2396,0.2422,0.2436,0.2466,0.2481,0.2465,0.2483,0.253,0.2539,0.2546,0.26,0.2612,0.2461,0.2461,0.2461,0,0.2222,0.224,0.2249,0.2268,0.2281,0.2291,0.2312,0.2327,0.235,0.2366,0.2355,0.2404,0.2417,0.2464,0.2474,0.2475,0.2502,0.2466,0.2535,0.2543,0.2551,0.2604,0.2617,0.2462,0.2462,0.2462,0.2462,0,0.225,0.226,0.227,0.2298,0.2312,0.2331,0.2352,0.2366,0.2374,0.2392,0.2432,0.2449,0.2481,0.2486,0.2489,0.2547,0.2551,0.2537,0.2526,0.2561,0.2615,0.2628,0.2464,0.2463,0.2463,0.2463,0,0,0.231,0.2294,0.2302,0.2303,0.2329,0.2343,0.2373,0.2408,0.2428,0.245,0.2483,0.2523,0.253,0.2547,0.2554,0.2587,0.2665,0.258,0.2582,0.2634,0.2778,0.2828,0.2848,0.2658,0.2661,0.2662,0.2798,0,0.2341,0.2355,0.2347,0.2367,0.238,0.2386,0.2408,0.2438,0.2459,0.249,0.2524,0.2557,0.2554,0.2566,0.2605,0.2648,0.2699,0.263,0.2736,0.274,0.278,0.2865,0.2805,0.2925,0.2811,0.2814,0.2815,0,0.2399,0.239,0.2408,0.2389,0.2397,0.2406,0.2439,0.246,0.2507,0.2523,0.2566,0.2589,0.2656,0.2634,0.2749,0.2702,0.2751,0.278,0.2785,0.2836,0.2815,0.2869,0.2954,0.2779,0.2836,0.2834,0.2833,0,0.2454,0.2443,0.2449,0.245,0.2439,0.2442,0.2437,0.2474,0.2499,0.2548,0.2574,0.2644,0.2688,0.2754,0.283,0.2792,0.2953,0.2909,0.3007,0.3011,0.2985,0.2984,0.2915,0.3005,0.3005,0.3004,0.3004,0,0.251,0.2514,0.2463,0.247,0.2478,0.2457,0.248,0.249,0.2515,0.2566,0.2592,0.2658,0.2719,0.2814,0.2865,0.3001,0.2996,0.3045,0.3062,0.2991,0.2989,0.2856,0.2787,0.3009,0.3008,0.3007,0.3006,0,0.2583,0.2553,0.2558,0.2519,0.2509,0.2517,0.2495,0.2506,0.2525,0.2592,0.2613,0.2696,0.2827,0.29,0.3026,0.3065,0.3083,0.3214,0.3136,0.3142,0.3061,0.2997,0.2937,0.286,0.3346,0.3348,0.335,0,0.2617,0.263,0.2603,0.2596,0.2573,0.2562,0.2554,0.2535,0.2548,0.2636,0.2676,0.2805,0.29,0.3099,0.3207,0.3332,0.3174,0.334,0.3263,0.3081,0.3021,0.287,0.2795,0.3235,0.3236,0.3237,0.3237,0,0.2676,0.2674,0.266,0.265,0.2631,0.2613,0.2588,0.2592,0.26,0.2645,0.2729,0.2803,0.3022,0.3123,0.3294,0.3372,0.3159,0.3361,0.318,0.2958,0.2781,0.2705,0.3116,0.3243,0.3242,0.3242,0.3242,0.3241,0.271,0.2717,0.2694,0.2684,0.2665,0.2628,0.2578,0.2575,0.2583,0.2605,0.2735,0.2814,0.2982,0.3219,0.3282,0.3286,0.324,0.3181,0.3132,0.3004,0.2881,0.3327,0.3464,0.3465,0.3465,0.3466,0.3466,0,0.2718,0.2709,0.2713,0.2671,0.2634,0.2625,0.2571,0.2498,0.2475,0.2582,0.2636,0.2779,0.2881,0.3006,0.3111,0.3028,0.2896,0.2913,0.2632,0.2582,0.299,0.2932,0.2949,0.2949,0.2949,0.2949,0.2949,0.295,0.2709,0.2694,0.2692,0.263,0.2597,0.2479,0.242,0.2351,0.2363,0.2375,0.2445,0.2542,0.2658,0.2736,0.2693,0.2675,0.2416,0.2363,0.2284,0.2497,0.2513,0.2529,0.2452,0.2367,0.2367,0.1778,0.1774,0.177]},{"header":{"parameterUnit":"m.s-1","parameterCategory":2,"la1":30.2991,"la2":30.254,"lo1":-89.0895,"lo2":-89.0444,"dy":0.0017,"dx":0.0017,"nx":28,"ny":28,"refTime":"2024-04-18T21:00:00:Z","depth":"0","parameterNumber":3,"parameterNumberName":"V-component_of_CURRENTS"},"data":[0,0,0,0,0,0,0,0,0,0,0,0,0,0,0,0,0,0,0,0,0,0,0,0,0,0,0,0,0,0,0,0,0,0,0,0,0,0,0,0,0,0,0,0,0,0,0,0,0,0,0,0,0,0,0,0,0,0,-0.0161,-0.0162,0,-0.0245,-0.0246,-0.0246,-0.0301,-0.0302,-0.0302,-0.0302,-0.0388,-0.039,-0.0392,0,0,0,0,0,0,0,0,0,0,0,0,0,-0.0047,-0.0048,-0.0161,-0.0162,-0.0163,-0.0245,-0.0246,-0.0247,-0.0301,-0.0302,-0.0302,-0.0303,-0.0388,-0.039,-0.0392,0,0,0,0,0,0,0,0,0,0,0,0,0,-0.0109,-0.0049,-0.0161,-0.0201,-0.0206,-0.0244,-0.0246,-0.0247,-0.0301,-0.0302,-0.0302,-0.0303,-0.0387,-0.039,-0.0392,-0.0396,0,0,-0.0401,-0.0402,0,0,0,0,0,0,0,0,-0.0105,-0.0113,-0.0194,-0.0198,-0.0204,-0.0264,-0.0237,-0.0297,-0.0301,-0.0264,-0.0303,-0.0303,-0.0347,-0.0353,-0.0366,-0.04,-0.0404,-0.0401,-0.0403,-0.0404,-0.0405,0,0,0,0,0,0,0,-0.0101,-0.011,-0.0193,-0.0195,-0.0201,-0.0214,-0.0224,-0.0248,-0.03,-0.0267,-0.0271,-0.0282,-0.035,-0.0363,-0.0368,-0.0405,-0.0401,-0.0403,-0.0405,-0.0406,-0.0458,-0.0457,0,0,0,0,0,0,-0.0092,-0.0106,-0.0191,-0.0196,-0.0156,-0.0216,-0.0226,-0.0243,-0.03,-0.0309,-0.0281,-0.0284,-0.0358,-0.0365,-0.0372,-0.0374,-0.0404,-0.0407,-0.0408,-0.0458,-0.0458,-0.0457,0,0,0,0,0,0,-0.009,-0.0099,-0.0187,-0.0153,-0.0165,-0.0217,-0.0235,-0.0244,-0.0259,-0.0311,-0.032,-0.0286,-0.0359,-0.0368,-0.0389,-0.0378,-0.0408,-0.041,-0.0458,-0.0458,-0.0457,-0.0383,0,0,0,0,0,0,-0.0086,-0.0098,-0.0099,-0.0153,-0.0167,-0.0202,-0.0235,-0.0246,-0.0265,-0.0269,-0.0318,-0.0327,-0.036,-0.0384,-0.0391,-0.0383,-0.0413,-0.0459,-0.0458,-0.0458,-0.0386,-0.038,-0.0375,0,0,0,0,0,-0.0082,-0.0079,-0.0099,-0.0109,-0.017,-0.0201,-0.0209,-0.0248,-0.0264,-0.0264,-0.0298,-0.0325,-0.0386,-0.0386,-0.0395,-0.0386,-0.0459,-0.0458,-0.0458,-0.0388,-0.0381,-0.0375,0,0,0,0,0,0,-0.0019,-0.0086,-0.0109,-0.0124,-0.0157,-0.0211,-0.0212,-0.0241,-0.0268,-0.0269,-0.0319,-0.033,-0.0345,-0.0376,-0.0375,-0.0401,-0.0428,-0.0429,-0.0372,-0.0366,-0.0361,-0.0344,-0.0415,0,0,0,0,0,-0.0008,-0.003,-0.0087,-0.0095,-0.0111,-0.0159,-0.0175,-0.0202,-0.0237,-0.025,-0.0286,-0.0321,-0.0348,-0.0364,-0.0392,-0.0404,-0.0424,-0.0406,-0.0401,-0.0396,-0.0389,-0.041,-0.0406,-0.0455,-0.0455,-0.0455,0,0,0.0015,-0.0024,-0.0035,-0.0084,-0.0112,-0.0126,-0.017,-0.0187,-0.0197,-0.0254,-0.0268,-0.0301,-0.0347,-0.0361,-0.0371,-0.0385,-0.0391,-0.0395,-0.039,-0.0386,-0.0409,-0.0404,-0.04,-0.0455,-0.0455,-0.0455,0,0,0.005,0.0016,0.0008,-0.0016,-0.0058,-0.009,-0.0092,-0.0143,-0.0162,-0.0181,-0.0224,-0.0247,-0.0292,-0.0321,-0.0342,-0.0323,-0.0359,-0.0337,-0.0297,-0.0318,-0.0314,-0.031,-0.0317,-0.0315,-0.0336,-0.0336,-0.0335,0,0.0086,0.006,0.0008,-0.0002,-0.0014,-0.007,-0.0068,-0.0096,-0.0144,-0.0154,-0.0175,-0.0235,-0.0271,-0.0291,-0.0287,-0.0309,-0.0325,-0.0315,-0.0309,-0.0306,-0.0304,-0.0312,-0.0311,-0.0332,-0.0332,-0.0333,-0.0333,0,0.0106,0.0095,0.0094,0.0057,0.0041,0.0036,-0.0011,-0.0025,-0.0055,-0.0087,-0.0111,-0.0161,-0.0198,-0.0214,-0.0246,-0.0251,-0.0267,-0.0296,-0.0321,-0.0294,-0.0305,-0.0305,-0.0327,-0.0328,-0.0329,-0.033,0,0,0.0166,0.0117,0.0119,0.0115,0.0072,0.0063,0.0054,0.0026,0.0025,-0.0021,-0.0025,-0.0077,-0.0109,-0.0135,-0.0179,-0.0199,-0.0195,-0.0237,-0.024,-0.0234,-0.0229,-0.022,-0.0219,-0.0224,-0.0224,-0.0224,-0.0237,0,0.0202,0.0198,0.0163,0.0177,0.0174,0.0132,0.013,0.0101,0.0069,0.0053,-0.0003,-0.0024,-0.0079,-0.0091,-0.012,-0.0179,-0.0193,-0.0188,-0.0264,-0.0266,-0.0253,-0.0218,-0.0139,-0.0143,-0.0238,-0.0238,-0.0238,0,0.0229,0.0224,0.0237,0.023,0.0227,0.0228,0.0218,0.0208,0.0168,0.0146,0.011,0.0062,0.0022,-0.0025,-0.0103,-0.0098,-0.0152,-0.0198,-0.02,-0.0217,-0.0256,-0.0189,-0.0139,-0.0262,-0.0238,-0.0238,-0.0238,0,0.0282,0.0279,0.0292,0.0288,0.027,0.0276,0.0266,0.0236,0.0235,0.0203,0.0204,0.0139,0.0117,0.0036,-0.0059,-0.0082,-0.0137,-0.0184,-0.0224,-0.0224,-0.0184,-0.018,-0.0253,-0.0228,-0.0228,-0.0228,-0.0228,0,0.032,0.0335,0.0318,0.0326,0.0358,0.0325,0.0349,0.0332,0.0313,0.0333,0.0254,0.0265,0.0132,0.0079,-0.0022,-0.0109,-0.0109,-0.0202,-0.0223,-0.0155,-0.0149,-0.0278,-0.037,-0.0229,-0.0228,-0.0228,-0.0228,0,0.0361,0.0348,0.0373,0.0373,0.0379,0.0399,0.0401,0.0419,0.0393,0.0419,0.0416,0.036,0.0306,0.018,0.0062,-0.0045,-0.0189,-0.0171,-0.0074,-0.0083,-0.0249,-0.0339,-0.0412,-0.0461,-0.0221,-0.0221,-0.0221,0,0.0365,0.0383,0.0415,0.0437,0.0436,0.0457,0.0479,0.0463,0.0485,0.0491,0.0518,0.0475,0.0474,0.0303,0.014,-0.0013,-0.0151,-0.0082,-0.012,-0.0234,-0.035,-0.0391,-0.0431,-0.0034,-0.0032,-0.0031,-0.003,0,0.0387,0.0409,0.0433,0.0482,0.0514,0.0558,0.0585,0.062,0.0622,0.0662,0.0709,0.071,0.0575,0.0476,0.0258,0.0131,-0.0142,-0.0061,-0.0202,-0.0223,-0.0248,-0.0312,-0.0053,-0.0017,-0.0018,-0.0019,-0.002,-0.0021,0.0404,0.0434,0.0472,0.052,0.0573,0.0646,0.0699,0.0753,0.0827,0.0925,0.0901,0.099,0.0792,0.0525,0.0305,-0.002,-0.006,-0.0121,-0.0222,-0.0254,-0.0297,-0.0005,0.0012,0.0011,0.001,0.001,0.0009,0,0.0407,0.0446,0.0498,0.0569,0.0647,0.0668,0.0765,0.0841,0.0968,0.1117,0.1195,0.1234,0.0954,0.0627,0.0173,-0.0112,-0.0217,-0.0285,-0.033,-0.0368,-0.0115,-0.0103,-0.008,-0.0079,-0.0079,-0.0079,-0.0079,-0.0079,0.0406,0.0455,0.0489,0.0608,0.0677,0.0797,0.087,0.1004,0.1139,0.1379,0.1533,0.1614,0.1377,0.0466,-0.017,-0.0336,-0.054,-0.0546,-0.071,-0.0552,-0.0544,-0.0537,-0.0547,-0.0617,-0.0618,-0.0864,-0.0867,-0.0869]}],[{"header":{"parameterUnit":"m.s-1","parameterCategory":2,"la1":30.2991,"la2":30.254,"lo1":-89.0895,"lo2":-89.0444,"dy":0.0017,"dx":0.0017,"nx":28,"ny":28,"refTime":"2024-04-18T21:00:00:Z","depth":"2","parameterNumber":2,"parameterNumberName":"U-component_of_CURRENTS"},"data":[0,0,0,0,0,0,0,0,0,0,0,0,0,0,0,0,0,0,0,0,0,0,0,0,0,0,0,0,0,0,0,0,0,0,0,0,0,0,0,0,0,0,0,0,0,0,0,0,0,0,0,0,0,0,0,0,0,0,0.1542,0.1542,0,0.1526,0.1526,0.1525,0.1503,0.1503,0.1503,0.1503,0.15,0.1501,0.1501,0,0,0,0,0,0,0,0,0,0,0,0,0,0.1558,0.1558,0.1542,0.1542,0.1542,0.1526,0.1526,0.1525,0.1503,0.1503,0.1503,0.1503,0.15,0.1501,0.1501,0,0,0,0,0,0,0,0,0,0,0,0,0,0.1545,0.1558,0.1542,0.1531,0.153,0.1526,0.1526,0.1525,0.1503,0.1503,0.1503,0.1502,0.15,0.1501,0.1501,0.1505,0,0,0.1501,0.1501,0,0,0,0,0,0,0,0,0.1546,0.1544,0.1532,0.1532,0.1531,0.1519,0.1531,0.152,0.1503,0.151,0.1503,0.1502,0.151,0.1509,0.1503,0.1505,0.1505,0.1501,0.1501,0.1501,0.1501,0,0,0,0,0,0,0,0.1547,0.1545,0.1533,0.1533,0.1531,0.1529,0.1526,0.1528,0.151,0.151,0.1509,0.1511,0.1509,0.1502,0.1502,0.1505,0.1501,0.1501,0.1501,0.1501,0.1551,0.1552,0,0,0,0,0,0,0.1554,0.1546,0.1533,0.1533,0.1541,0.1529,0.1526,0.152,0.1509,0.1508,0.1512,0.151,0.1502,0.1502,0.1502,0.1544,0.1501,0.1501,0.1501,0.155,0.1552,0.1553,0,0,0,0,0,0,0.1554,0.1553,0.1534,0.1541,0.1539,0.1529,0.1523,0.152,0.1521,0.1511,0.1509,0.1516,0.1502,0.1502,0.1521,0.1542,0.1501,0.1501,0.1549,0.155,0.1552,0.1604,0,0,0,0,0,0,0.1555,0.1553,0.1555,0.1542,0.1539,0.154,0.1523,0.152,0.1524,0.1522,0.1514,0.1513,0.1502,0.1521,0.1521,0.1542,0.1501,0.1547,0.1549,0.1552,0.1601,0.1608,0.1614,0,0,0,0,0,0.1555,0.1557,0.1555,0.1554,0.1541,0.154,0.1539,0.1529,0.1524,0.1528,0.153,0.1514,0.1536,0.1522,0.1522,0.1543,0.1546,0.1549,0.1551,0.1598,0.1606,0.1613,0,0,0,0,0,0,0.1568,0.1555,0.1553,0.1551,0.1552,0.1538,0.1542,0.1537,0.154,0.1541,0.153,0.1529,0.1556,0.1544,0.1529,0.1566,0.1538,0.1541,0.1574,0.1582,0.1588,0.1596,0.1501,0,0,0,0,0,0.1573,0.1569,0.1562,0.1564,0.1565,0.1557,0.1557,0.1551,0.1551,0.1551,0.1548,0.1551,0.1566,0.157,0.1576,0.1594,0.1615,0.1608,0.1614,0.162,0.1627,0.1685,0.1698,0.1562,0.1562,0.1562,0,0,0.158,0.1573,0.1571,0.1567,0.1565,0.1574,0.1556,0.156,0.1571,0.1552,0.1569,0.1575,0.1578,0.1602,0.1612,0.1594,0.1673,0.1623,0.1628,0.1633,0.169,0.1703,0.1715,0.1564,0.1564,0.1564,0,0,0.1593,0.1585,0.1589,0.159,0.1593,0.1591,0.1597,0.1591,0.1592,0.1609,0.1608,0.163,0.1635,0.1649,0.1656,0.1702,0.1709,0.1701,0.1734,0.1791,0.1803,0.1813,0.1873,0.1889,0.1699,0.1699,0.1699,0,0.1604,0.1606,0.1593,0.1601,0.161,0.1603,0.1619,0.1621,0.1624,0.164,0.1622,0.1665,0.1661,0.171,0.1722,0.1717,0.1752,0.1704,0.18,0.1811,0.1821,0.188,0.1896,0.1702,0.1701,0.1701,0.1701,0,0.1619,0.1627,0.1632,0.164,0.1649,0.1659,0.1665,0.168,0.1682,0.1689,0.1732,0.1732,0.1761,0.1762,0.1752,0.1822,0.1827,0.1807,0.1782,0.1838,0.1896,0.1913,0.1706,0.1705,0.1704,0.1703,0,0,0.1618,0.164,0.1642,0.1655,0.1669,0.1676,0.171,0.174,0.1774,0.1776,0.1825,0.1841,0.1846,0.1855,0.1852,0.1887,0.1984,0.1876,0.1877,0.1937,0.2126,0.212,0.2137,0.1985,0.1988,0.199,0.2144,0,0.1636,0.1664,0.1671,0.1704,0.1718,0.1733,0.1768,0.1796,0.1818,0.1862,0.1876,0.1917,0.1881,0.1903,0.1936,0.1974,0.2027,0.1945,0.206,0.2064,0.2054,0.2155,0.1879,0.1992,0.216,0.2162,0.2164,0,0.1635,0.166,0.17,0.1739,0.1749,0.1778,0.1839,0.1866,0.1929,0.1951,0.1995,0.2005,0.2065,0.2019,0.2124,0.2076,0.2112,0.2132,0.2138,0.2125,0.2089,0.196,0.2015,0.2191,0.2189,0.2187,0.2185,0,0.1622,0.1668,0.1706,0.1717,0.177,0.1806,0.1842,0.1902,0.1938,0.2018,0.2055,0.2119,0.2161,0.2211,0.2247,0.22,0.2366,0.2306,0.2341,0.2341,0.2124,0.21,0.2399,0.2399,0.2399,0.2398,0.2398,0,0.1613,0.1638,0.171,0.1725,0.1778,0.1818,0.1886,0.1926,0.2009,0.2068,0.2102,0.2165,0.2211,0.2293,0.2312,0.2397,0.243,0.2381,0.2392,0.2136,0.2113,0.2285,0.2269,0.2404,0.2403,0.2402,0.2401,0,0.1572,0.1621,0.1657,0.1738,0.1766,0.1801,0.1894,0.194,0.2026,0.2108,0.2138,0.2234,0.2356,0.2409,0.2516,0.2489,0.256,0.2581,0.2286,0.226,0.2478,0.2463,0.2635,0.2637,0.2638,0.2639,0.264,0,0.1556,0.1575,0.165,0.1675,0.1714,0.1785,0.1832,0.1933,0.1987,0.2148,0.2183,0.2335,0.2394,0.2557,0.2534,0.2592,0.2669,0.2421,0.2275,0.2515,0.2508,0.2492,0.2476,0.2008,0.2004,0.2,0.1997,0,0.1521,0.1548,0.1576,0.1631,0.1683,0.174,0.1825,0.187,0.2002,0.2073,0.2202,0.2267,0.2389,0.2322,0.2408,0.24,0.2381,0.2353,0.2695,0.2,0.1939,0.1927,0.1929,0.1965,0.1968,0.197,0.1972,0.1973,0.1491,0.1494,0.1536,0.1581,0.1634,0.1692,0.1727,0.1815,0.1893,0.1947,0.2062,0.2072,0.2113,0.2083,0.2074,0.2089,0.2238,0.2143,0.2148,0.2157,0.2066,0.2011,0.2034,0.2038,0.2041,0.2043,0.2046,0,0.1461,0.1469,0.1492,0.1541,0.1569,0.1638,0.1716,0.1704,0.1763,0.1789,0.1805,0.1638,0.1594,0.1726,0.1641,0.1664,0.156,0.1667,0.1489,0.1523,0.1552,0.1423,0.1225,0.1223,0.1221,0.122,0,0,0.1446,0.1445,0.1454,0.1479,0.1522,0.1556,0.1596,0.1534,0.1527,0.1451,0.1426,0.1396,0.1583,0.1333,0.1325,0.1278,0.138,0.1227,0.1874,0.169,0.1717,0.1813,0.1653,0,0,0,0,0]},{"header":{"parameterUnit":"m.s-1","parameterCategory":2,"la1":30.2991,"la2":30.254,"lo1":-89.0895,"lo2":-89.0444,"dy":0.0017,"dx":0.0017,"nx":28,"ny":28,"refTime":"2024-04-18T21:00:00:Z","depth":"2","parameterNumber":3,"parameterNumberName":"V-component_of_CURRENTS"},"data":[0,0,0,0,0,0,0,0,0,0,0,0,0,0,0,0,0,0,0,0,0,0,0,0,0,0,0,0,0,0,0,0,0,0,0,0,0,0,0,0,0,0,0,0,0,0,0,0,0,0,0,0,0,0,0,0,0,0,0.021,0.021,0,0.0182,0.0181,0.0181,0.0139,0.0138,0.0137,0.0136,0.0087,0.0087,0.0086,0,0,0,0,0,0,0,0,0,0,0,0,0,0.0208,0.0209,0.021,0.021,0.0209,0.0182,0.0181,0.0181,0.0139,0.0138,0.0137,0.0136,0.0087,0.0087,0.0086,0,0,0,0,0,0,0,0,0,0,0,0,0,0.0198,0.0209,0.021,0.0185,0.0182,0.0182,0.0181,0.0181,0.0139,0.0138,0.0136,0.0135,0.0088,0.0087,0.0086,0.0105,0,0,0.0084,0.0083,0,0,0,0,0,0,0,0,0.0199,0.0198,0.0189,0.0186,0.0183,0.0162,0.0163,0.0154,0.0139,0.0156,0.0136,0.0135,0.0111,0.0108,0.0106,0.0103,0.0101,0.0083,0.0083,0.0083,0.0082,0,0,0,0,0,0,0,0.0199,0.0199,0.02,0.0188,0.0185,0.0168,0.0165,0.0161,0.0141,0.0154,0.0151,0.0147,0.0109,0.0107,0.0105,0.01,0.0083,0.0083,0.0082,0.0082,0.0052,0.0051,0,0,0,0,0,0,0.0204,0.02,0.02,0.0199,0.0188,0.0169,0.0166,0.0171,0.0141,0.0135,0.0148,0.0145,0.0109,0.0106,0.0103,0.0083,0.0083,0.0082,0.0081,0.0052,0.0051,0.0051,0,0,0,0,0,0,0.0205,0.0205,0.0202,0.0197,0.0196,0.017,0.0176,0.0171,0.0146,0.0137,0.013,0.0126,0.0108,0.0104,0.009,0.0083,0.0081,0.0081,0.0052,0.0052,0.0051,0.007,0,0,0,0,0,0,0.0205,0.0206,0.0203,0.0198,0.0196,0.0195,0.0177,0.0171,0.0147,0.0142,0.0116,0.0112,0.0107,0.0092,0.009,0.0081,0.008,0.0053,0.0052,0.0051,0.007,0.007,0.0071,0,0,0,0,0,0.0205,0.0213,0.0203,0.0203,0.0196,0.0196,0.0193,0.017,0.0147,0.0142,0.0124,0.0111,0.0086,0.0091,0.0089,0.008,0.0053,0.0052,0.0051,0.007,0.007,0.0071,0,0,0,0,0,0,0.0206,0.0209,0.0198,0.0204,0.0195,0.0188,0.018,0.0161,0.0143,0.0131,0.0115,0.0111,0.0095,0.0085,0.0091,0.0068,0.0064,0.0063,0.0079,0.0079,0.008,0.0088,0.0079,0,0,0,0,0,0.0207,0.0214,0.0209,0.021,0.0207,0.0188,0.018,0.0164,0.0152,0.014,0.0121,0.0101,0.0095,0.0084,0.0076,0.0068,0.0052,0.0057,0.0057,0.0058,0.0062,0.0036,0.0035,0.0049,0.0049,0.0049,0,0,0.0204,0.0208,0.0208,0.021,0.0201,0.0208,0.018,0.0167,0.0165,0.014,0.0122,0.0103,0.0093,0.0085,0.0076,0.0072,0.0044,0.0057,0.0058,0.0062,0.0035,0.0034,0.0033,0.0048,0.0048,0.0049,0,0,0.0212,0.0208,0.0217,0.0219,0.0209,0.0205,0.0197,0.0179,0.016,0.0146,0.0128,0.0107,0.0087,0.0083,0.0079,0.0077,0.0049,0.0061,0.0069,0.0044,0.0043,0.0042,0.0014,0.001,0.0059,0.0059,0.0059,0,0.0203,0.0223,0.0217,0.0231,0.0236,0.0205,0.0216,0.0202,0.0176,0.0169,0.014,0.0108,0.0091,0.0094,0.0087,0.0079,0.0054,0.0071,0.0045,0.0044,0.0042,0.0014,0.001,0.006,0.006,0.006,0.006,0,0.0227,0.0238,0.0244,0.0258,0.0262,0.0265,0.0255,0.0241,0.0208,0.0192,0.0166,0.0136,0.0117,0.0103,0.0092,0.0074,0.0057,0.0052,0.0047,0.0042,0.0013,0.0008,0.0061,0.0061,0.0061,0.0061,0,0,0.0227,0.0253,0.0254,0.0269,0.0277,0.0285,0.0288,0.0287,0.0292,0.0236,0.0233,0.0193,0.0155,0.0147,0.012,0.0092,0.0052,0.006,0.0059,0.0038,-0.0014,0.0024,0.0021,0.0035,0.0035,0.0034,-0.0033,0,0.0243,0.0273,0.0287,0.0317,0.0336,0.0331,0.0347,0.034,0.032,0.031,0.0254,0.0235,0.0179,0.016,0.0121,0.0081,0.004,0.007,-0.0011,-0.0013,0.0025,0.0018,-0.0007,-0.0064,-0.0037,-0.0038,-0.0039,0,0.0274,0.029,0.0318,0.036,0.0368,0.0379,0.0406,0.0415,0.0403,0.0385,0.0343,0.0297,0.0243,0.0193,0.0097,0.0114,0.0043,0.0002,-0.0002,0.0026,0.0016,-0.0055,-0.0074,-0.0047,-0.0047,-0.0046,-0.0046,0,0.0295,0.0324,0.0344,0.0357,0.0391,0.04,0.0414,0.0426,0.0449,0.0421,0.0423,0.0349,0.0313,0.0213,0.011,0.0092,0.0013,-0.0016,-0.0051,-0.005,-0.0088,-0.0088,-0.0094,-0.0094,-0.0094,-0.0094,-0.0093,0,0.0336,0.0358,0.0347,0.0365,0.0397,0.0414,0.0454,0.0464,0.0486,0.0533,0.0447,0.0467,0.0312,0.0247,0.0135,0.0039,0.0025,-0.0048,-0.0061,-0.0082,-0.008,-0.0077,-0.0074,-0.0096,-0.0096,-0.0095,-0.0095,0,0.0391,0.0374,0.0404,0.0413,0.0411,0.0437,0.0483,0.0527,0.0531,0.0588,0.0576,0.0541,0.0472,0.0329,0.0195,0.0091,-0.0011,-0.0046,-0.0056,-0.0068,-0.0073,-0.0069,-0.0105,-0.0104,-0.0104,-0.0103,-0.0103,0,0.0429,0.0444,0.0437,0.0443,0.0446,0.0474,0.051,0.0539,0.0605,0.0658,0.0703,0.0644,0.0663,0.0478,0.0252,0.006,0.0042,-0.0069,-0.01,-0.0064,-0.0073,-0.007,-0.0066,-0.0162,-0.0162,-0.0162,-0.0162,0,0.0513,0.0494,0.0517,0.0515,0.053,0.0573,0.0628,0.0698,0.0763,0.0836,0.0949,0.0966,0.0759,0.0571,0.029,0.0155,-0.0041,-0.0072,-0.0042,-0.013,-0.0115,-0.0125,-0.012,-0.0162,-0.0162,-0.0162,-0.0162,-0.0162,0.0574,0.0597,0.0595,0.0608,0.0624,0.0689,0.0762,0.0862,0.1002,0.1112,0.1109,0.1105,0.0843,0.0478,0.0253,-0.002,-0.0012,-0.0116,-0.0117,-0.0118,-0.0088,-0.007,-0.0104,-0.0104,-0.0103,-0.0103,-0.0103,0,0.065,0.0658,0.0685,0.0704,0.0758,0.0727,0.0856,0.097,0.1171,0.1201,0.1265,0.1015,0.079,0.0511,0.0095,-0.0112,-0.0164,-0.0159,-0.0199,-0.0197,-0.0196,-0.0172,-0.0209,-0.021,-0.021,-0.0211,0,0,0.0684,0.0732,0.0742,0.0821,0.0832,0.0921,0.1005,0.1166,0.124,0.1326,0.1261,0.1117,0.0821,0.0499,0.0202,-0.0001,-0.0045,-0.0039,0.0061,0.0049,0.0053,-0.0162,-0.012,0,0,0,0,0]}],[{"header":{"parameterUnit":"m.s-1","parameterCategory":2,"la1":30.2991,"la2":30.254,"lo1":-89.0895,"lo2":-89.0444,"dy":0.0017,"dx":0.0017,"nx":28,"ny":28,"refTime":"2024-04-18T21:00:00:Z","depth":"4","parameterNumber":2,"parameterNumberName":"U-component_of_CURRENTS"},"data":[0,0,0,0,0,0,0,0,0,0,0,0,0,0,0,0,0,0,0,0,0,0,0,0,0,0,0,0,0,0,0,0,0,0,0,0,0,0,0,0,0,0,0,0,0,0,0,0,0,0,0,0,0,0,0,0,0,0,0.0548,0.0548,0,0.0565,0.0565,0.0565,0.0648,0.065,0.0652,0.0654,0.0699,0.0698,0.0698,0,0,0,0,0,0,0,0,0,0,0,0,0,0.0514,0.0514,0.0548,0.0548,0.0548,0.0565,0.0565,0.0566,0.0648,0.065,0.0652,0.0654,0.0699,0.0699,0.0698,0,0,0,0,0,0,0,0,0,0,0,0,0,0.053,0.0514,0.0548,0.059,0.0594,0.0565,0.0565,0.0566,0.0647,0.065,0.0653,0.0656,0.0699,0.0699,0.0698,0.0638,0,0,0.0695,0.0695,0,0,0,0,0,0,0,0,0.0529,0.0532,0.0584,0.0587,0.0591,0.0606,0.057,0.0591,0.0647,0.0628,0.0654,0.0657,0.0668,0.067,0.0668,0.064,0.0642,0.0695,0.0695,0.0695,0.0694,0,0,0,0,0,0,0,0.0528,0.0531,0.0556,0.0584,0.0588,0.0583,0.059,0.0574,0.0634,0.063,0.0636,0.0635,0.0671,0.0668,0.067,0.0642,0.0695,0.0695,0.0694,0.0694,0.0824,0.0828,0,0,0,0,0,0,0.0525,0.053,0.0555,0.0556,0.0565,0.0582,0.0589,0.06,0.0633,0.0641,0.0633,0.0639,0.0668,0.0671,0.0672,0.0799,0.0695,0.0694,0.0693,0.082,0.0825,0.0829,0,0,0,0,0,0,0.0524,0.0527,0.0554,0.0542,0.0545,0.058,0.0591,0.0598,0.0641,0.0635,0.0644,0.0673,0.0671,0.0673,0.0716,0.0794,0.0694,0.0693,0.0816,0.0822,0.0827,0.0928,0,0,0,0,0,0,0.0523,0.0527,0.0539,0.0542,0.0546,0.058,0.0588,0.0597,0.0633,0.0642,0.067,0.0675,0.0673,0.0718,0.0716,0.0791,0.0692,0.0811,0.0819,0.0825,0.0919,0.0936,0.0951,0,0,0,0,0,0.0522,0.0533,0.054,0.0543,0.056,0.0581,0.0584,0.0617,0.0632,0.0663,0.0691,0.0677,0.0766,0.0719,0.0716,0.0793,0.0807,0.0816,0.0825,0.0912,0.0933,0.095,0,0,0,0,0,0,0.0518,0.0542,0.055,0.0567,0.059,0.0596,0.0618,0.0632,0.0673,0.0691,0.0691,0.0698,0.0777,0.0766,0.0715,0.0861,0.0797,0.0806,0.0865,0.0884,0.09,0.0895,0.0692,0,0,0,0,0,0.0519,0.0543,0.0559,0.0574,0.059,0.0606,0.0619,0.0645,0.0671,0.0693,0.0717,0.0755,0.08,0.0827,0.0853,0.0899,0.0856,0.0962,0.0978,0.0991,0.0991,0.0975,0.0987,0.0858,0.0858,0.0858,0,0,0.0523,0.0533,0.055,0.0576,0.0594,0.062,0.0625,0.0662,0.0698,0.0686,0.0758,0.0797,0.0824,0.0903,0.094,0.0909,0.1012,0.1002,0.1013,0.1005,0.0985,0.0996,0.1007,0.0864,0.0863,0.0862,0,0,0.0529,0.0554,0.0578,0.0602,0.0636,0.0647,0.0668,0.0705,0.0749,0.0808,0.0832,0.0907,0.0963,0.1006,0.1031,0.1139,0.109,0.1183,0.1257,0.1242,0.1251,0.1258,0.1231,0.1235,0.1196,0.1197,0.1197,0,0.053,0.0554,0.0587,0.0612,0.0636,0.0667,0.0699,0.0735,0.0789,0.0841,0.0858,0.0988,0.101,0.1104,0.1175,0.1171,0.1153,0.1176,0.1257,0.1263,0.1268,0.1239,0.1242,0.1202,0.1202,0.1201,0.1201,0,0.055,0.0577,0.0595,0.064,0.0678,0.071,0.0763,0.0817,0.0877,0.0934,0.1061,0.1098,0.1189,0.1228,0.124,0.1327,0.1299,0.1267,0.1194,0.1286,0.1251,0.1252,0.1211,0.1209,0.1207,0.1206,0,0,0.0541,0.0595,0.0607,0.064,0.0698,0.0737,0.0804,0.089,0.0952,0.1054,0.1134,0.1268,0.1329,0.1362,0.1393,0.1396,0.1434,0.1374,0.137,0.132,0.1404,0.1307,0.1297,0.1419,0.142,0.1421,0.1365,0,0.0547,0.0578,0.0623,0.069,0.0717,0.0785,0.0831,0.0927,0.1024,0.111,0.1207,0.1306,0.1369,0.1424,0.1455,0.1443,0.1442,0.1452,0.1345,0.1341,0.122,0.1297,0.1423,0.1365,0.1365,0.1365,0.1365,0,0.0565,0.0577,0.0621,0.0704,0.0729,0.0793,0.0908,0.0962,0.109,0.1175,0.1318,0.1378,0.1485,0.1466,0.1518,0.1532,0.1492,0.1451,0.1446,0.1316,0.1246,0.1255,0.1366,0.1366,0.1366,0.1366,0.1366,0,0.0537,0.0605,0.0637,0.0665,0.0741,0.0818,0.0886,0.1012,0.108,0.1234,0.13,0.1435,0.1495,0.1496,0.149,0.1517,0.1448,0.1458,0.1318,0.1309,0.1362,0.1355,0.1426,0.1426,0.1427,0.1427,0.1427,0,0.0529,0.0572,0.0642,0.0664,0.0729,0.0821,0.0925,0.1015,0.1135,0.1198,0.1356,0.1388,0.1505,0.1492,0.1473,0.1408,0.145,0.1336,0.1293,0.1411,0.141,0.1362,0.1355,0.1425,0.1425,0.1425,0.1426,0,0.0515,0.0539,0.0589,0.0679,0.0716,0.0788,0.094,0.1006,0.1136,0.1206,0.1255,0.1391,0.1405,0.1433,0.1394,0.1377,0.1296,0.1227,0.1336,0.1299,0.118,0.118,0.113,0.1127,0.1123,0.1121,0.1118,0,0.0502,0.0516,0.0589,0.0619,0.0685,0.0791,0.0836,0.0993,0.105,0.1162,0.116,0.1236,0.1294,0.1195,0.1232,0.1185,0.1153,0.1123,0.1199,0.1188,0.1152,0.1157,0.1161,0.1113,0.1113,0.1112,0.1111,0,0.0477,0.051,0.0524,0.0569,0.0649,0.07,0.0795,0.0833,0.0952,0.1067,0.1073,0.1098,0.1089,0.1121,0.108,0.1031,0.1175,0.109,0.1099,0.1171,0.1167,0.1135,0.1143,0.11,0.1101,0.1102,0.1103,0,0.045,0.0455,0.047,0.0516,0.0563,0.0589,0.0668,0.0721,0.0786,0.0923,0.0887,0.0955,0.1038,0.1028,0.0962,0.0954,0.0979,0.0974,0.0989,0.1002,0.099,0.0968,0.0807,0,0,0,0,0,0.0422,0.0415,0.0431,0.0446,0.0478,0.0521,0.0597,0.0672,0.0768,0.0751,0.0838,0.0814,0.0836,0.0866,0.0838,0.0902,0.0964,0.0865,0.0962,0.1038,0.1051,0.1052,0,0,0,0,0,0,0.0404,0.0404,0.0393,0.0348,0.0362,0.0397,0.0451,0.0534,0.0533,0.0647,0.0662,0.0756,0.0781,0.0832,0.0815,0.0824,0.0869,0.0913,0.0911,0.1031,0.1042,0.1053,0.1058,0,0,0,0,0]},{"header":{"parameterUnit":"m.s-1","parameterCategory":2,"la1":30.2991,"la2":30.254,"lo1":-89.0895,"lo2":-89.0444,"dy":0.0017,"dx":0.0017,"nx":28,"ny":28,"refTime":"2024-04-18T21:00:00:Z","depth":"4","parameterNumber":3,"parameterNumberName":"V-component_of_CURRENTS"},"data":[0,0,0,0,0,0,0,0,0,0,0,0,0,0,0,0,0,0,0,0,0,0,0,0,0,0,0,0,0,0,0,0,0,0,0,0,0,0,0,0,0,0,0,0,0,0,0,0,0,0,0,0,0,0,0,0,0,0,0.0357,0.0356,0,0.0324,0.0324,0.0323,0.0346,0.0348,0.0349,0.035,0.0322,0.032,0.0319,0,0,0,0,0,0,0,0,0,0,0,0,0,0.0384,0.0384,0.0357,0.0356,0.0356,0.0324,0.0323,0.0323,0.0346,0.0348,0.0349,0.035,0.0323,0.032,0.0318,0,0,0,0,0,0,0,0,0,0,0,0,0,0.0364,0.0384,0.0357,0.0364,0.0364,0.0324,0.0323,0.0323,0.0346,0.0348,0.0349,0.0351,0.0323,0.0321,0.0318,0.027,0,0,0.031,0.0309,0,0,0,0,0,0,0,0,0.0365,0.0363,0.0363,0.0363,0.0364,0.0341,0.0323,0.0306,0.0346,0.0353,0.035,0.0351,0.0328,0.0325,0.0315,0.0269,0.0268,0.031,0.0308,0.0307,0.0307,0,0,0,0,0,0,0,0.0367,0.0364,0.0344,0.0363,0.0363,0.035,0.0349,0.032,0.0332,0.0352,0.0354,0.035,0.0328,0.0317,0.0314,0.0267,0.031,0.0308,0.0306,0.0305,0.0235,0.0234,0,0,0,0,0,0,0.0372,0.0366,0.0345,0.0343,0.0369,0.0348,0.0347,0.0347,0.0332,0.0331,0.0349,0.0351,0.0321,0.0317,0.0313,0.031,0.0307,0.0305,0.0303,0.0235,0.0235,0.0234,0,0,0,0,0,0,0.0373,0.0371,0.0346,0.0353,0.035,0.0347,0.0345,0.0345,0.0353,0.0329,0.0329,0.0359,0.0322,0.0317,0.0304,0.0307,0.0304,0.0301,0.0235,0.0235,0.0234,0.0268,0,0,0,0,0,0,0.0374,0.0371,0.0374,0.0354,0.0349,0.0337,0.0343,0.0343,0.0347,0.0351,0.0337,0.0336,0.0323,0.0308,0.0301,0.0303,0.0299,0.0236,0.0235,0.0235,0.0267,0.0268,0.027,0,0,0,0,0,0.0375,0.0371,0.0374,0.0372,0.0353,0.0337,0.0333,0.0336,0.0347,0.0349,0.0342,0.0337,0.03,0.0305,0.0298,0.0299,0.0236,0.0235,0.0235,0.0266,0.0268,0.027,0,0,0,0,0,0,0.0376,0.0372,0.0376,0.0369,0.0362,0.0342,0.0342,0.0342,0.0336,0.0345,0.0328,0.0325,0.0313,0.0297,0.0304,0.0276,0.0268,0.0266,0.0295,0.0296,0.0297,0.0305,0.0297,0,0,0,0,0,0.0379,0.0382,0.0371,0.0366,0.0366,0.0356,0.0351,0.0353,0.0343,0.0344,0.0333,0.0319,0.0297,0.0294,0.027,0.0252,0.0221,0.0249,0.025,0.0251,0.0252,0.0194,0.019,0.0232,0.0232,0.0232,0,0,0.0381,0.0375,0.038,0.0368,0.0364,0.0358,0.0358,0.0356,0.0353,0.0338,0.0335,0.0319,0.0292,0.0276,0.027,0.027,0.0224,0.025,0.0252,0.0252,0.0193,0.0189,0.0185,0.0231,0.0231,0.0232,0,0,0.0379,0.0381,0.0385,0.038,0.0374,0.0366,0.037,0.036,0.0363,0.0352,0.034,0.0325,0.03,0.0279,0.0264,0.0254,0.0229,0.0255,0.0274,0.0218,0.0214,0.021,0.0173,0.0165,0.0262,0.0262,0.0262,0,0.0381,0.0381,0.0381,0.0378,0.0377,0.0373,0.0374,0.0365,0.0353,0.0352,0.036,0.0315,0.0296,0.0266,0.0273,0.0256,0.0231,0.0274,0.022,0.0215,0.0211,0.0173,0.0164,0.0263,0.0263,0.0263,0.0263,0,0.0379,0.0381,0.0381,0.0381,0.0379,0.0378,0.0371,0.0369,0.0374,0.0367,0.035,0.032,0.0302,0.0289,0.0283,0.0246,0.0241,0.0224,0.0218,0.0209,0.017,0.016,0.0266,0.0265,0.0265,0.0264,0,0,0.039,0.0382,0.0387,0.0395,0.0385,0.0389,0.0378,0.0372,0.0376,0.0362,0.0352,0.0323,0.0325,0.0308,0.029,0.0246,0.0198,0.0237,0.0233,0.0205,0.0091,0.0098,0.0088,0.0177,0.0175,0.0174,0.0079,0,0.0393,0.0386,0.0386,0.0398,0.0398,0.0397,0.0383,0.0379,0.038,0.0367,0.0336,0.0325,0.0327,0.0327,0.0284,0.0216,0.0173,0.0226,0.01,0.0096,0.0107,0.0077,0.0169,0.0072,0.007,0.0068,0.0067,0,0.0403,0.0394,0.0399,0.0407,0.0411,0.0429,0.0434,0.0422,0.0394,0.0397,0.0385,0.0359,0.0313,0.0305,0.0195,0.0235,0.0174,0.0114,0.0109,0.0097,0.0085,0.008,0.0049,0.005,0.0052,0.0053,0.0054,0,0.0417,0.042,0.0428,0.043,0.0423,0.045,0.046,0.0447,0.0448,0.0431,0.0429,0.037,0.0345,0.0255,0.0165,0.0179,0.0021,0.0019,-0.0038,-0.0038,-0.0029,-0.0024,-0.0077,-0.0077,-0.0077,-0.0077,-0.0076,0,0.0423,0.0439,0.0452,0.0459,0.0486,0.0486,0.052,0.0517,0.0508,0.0498,0.0467,0.0432,0.0331,0.0235,0.015,0.0033,0.0013,-0.0043,-0.0069,-0.0011,-0.0003,-0.0035,-0.0029,-0.008,-0.0079,-0.0079,-0.0078,0,0.0441,0.0438,0.046,0.0479,0.0496,0.053,0.0579,0.0597,0.0585,0.0567,0.0563,0.0479,0.036,0.0246,0.008,0.0024,-0.0102,-0.0142,-0.0065,-0.0084,-0.0118,-0.0109,-0.0213,-0.0214,-0.0214,-0.0215,-0.0215,0,0.0439,0.045,0.0487,0.0518,0.0549,0.0598,0.0625,0.0642,0.0648,0.0581,0.0557,0.0455,0.0383,0.0167,0.0043,-0.0122,-0.0141,-0.0194,-0.0158,-0.0121,-0.0136,-0.0126,-0.0117,-0.0216,-0.0216,-0.0216,-0.0216,0,0.0437,0.0466,0.0466,0.0538,0.0604,0.0641,0.0683,0.0687,0.0665,0.0663,0.0559,0.045,0.0307,0.0154,0.0034,-0.0091,-0.0153,-0.02,-0.0199,-0.0166,-0.0126,-0.0138,-0.0128,-0.0218,-0.0218,-0.0218,-0.0218,0,0.0434,0.0451,0.0481,0.0544,0.0603,0.0651,0.0682,0.0678,0.0672,0.0602,0.0555,0.0416,0.0336,0.0166,0.0036,-0.0064,-0.0084,-0.0104,-0.0109,-0.0108,-0.0043,0.0026,-0.0051,0,0,0,0,0,0.0428,0.0456,0.0501,0.0554,0.061,0.0669,0.0685,0.0701,0.0675,0.062,0.0592,0.0459,0.0276,0.0179,0.0081,0.0019,-0.0108,-0.01,-0.0134,-0.023,-0.0227,-0.0167,0,0,0,0,0,0,0.0429,0.0462,0.0485,0.0534,0.0595,0.0666,0.0689,0.0686,0.0635,0.06,0.0501,0.0457,0.0275,0.0352,0.0092,0.0056,0.0023,-0.0185,-0.0187,-0.0231,-0.0229,-0.0227,-0.0164,0,0,0,0,0]}]]